Home > Weather > Abilene > Past weeks

Flag for USA Past Weather in Abilene, Texas, USA — Yesterday and Last 2 Weeks

Now
79 °F

Sunny.


Feels Like: 81 °F
Forecast: 74 / 90 °F
Wind: 12 mph from South

Location: Abilene Regional Airport

Current Time: Jun 26, 2016 at 5:53:54 PM

Latest Report: Jun 26, 2016 at 4:52 PM


Visibility: 10 mi

Pressure: 30.03 "Hg (28.28 "Hg at 524m altitude)

Humidity: 69%

Dew Point: 68 °F

Location of AbileneLocation

Past Weather in Abilene — Graph

°F

Abilene Temperature Yesterday

Maximum temperature yesterday: 90 °F (at 2:52 PM)
Minimum temperature yesterday: 75 °F (at 5:52 AM)
Average temperature yesterday: 81 °F

High & Low Weather Summary for the Past Weeks

 TemperatureHumidityPressure
High97 °F (Jun 17, 4:52 PM)94% (Jun 13, 3:52 AM)30.18 "Hg (Jun 13, 3:52 AM)
Low70 °F (Jun 12, 9:52 AM)36% (Jun 16, 5:52 PM)29.72 "Hg (Jun 14, 5:52 PM)
Average83 °F64%29.93 "Hg
* Reported Jun 11 3:52 PM — Jun 26 3:52 PM, Abilene, Weather by CustomWeather, © 2016

Note: Actual official high and low records may vary slightly from our data, if they occured in-between our weather recording intervals... More about our weather records

Advertising

Abilene Weather History for the Previous 24 Hours

Scroll right to see more
 ConditionsComfort  
Time TempWeatherWind HumidityBarometerVisibility
3:52 PM
Sun, Jun 26
80 °FScattered clouds.12 mph71%30.04 "Hg10 mi
2:52 PM84 °FBroken clouds.10 mph67%30.03 "Hg10 mi
1:52 PM87 °FSunny.14 mph50%30.06 "Hg10 mi
12:52 PM86 °FSunny.14 mph51%30.06 "Hg10 mi
11:52 AM83 °FSunny.10 mph59%30.07 "Hg10 mi
10:52 AM79 °FSunny.13 mph67%30.09 "Hg10 mi
9:52 AM77 °FSunny.17 mph77%30.09 "Hg10 mi
8:52 AM77 °FSunny.16 mph82%30.07 "Hg10 mi
7:52 AM74 °FSunny.12 mph91%30.03 "Hg10 mi
6:52 AM74 °FPassing clouds.14 mph91%30.02 "Hg10 mi
5:52 AM74 °FPassing clouds.9 mph91%30.03 "Hg10 mi
4:52 AM74 °FPassing clouds.9 mph88%30.02 "Hg10 mi
3:52 AM75 °FClear.9 mph85%30.01 "Hg10 mi
2:52 AM75 °FClear.10 mph85%30.01 "Hg10 mi
1:52 AM76 °FClear.12 mph85%30.01 "Hg10 mi
12:52 AM76 °FClear.12 mph82%29.99 "Hg10 mi
11:52 PM
Sat, Jun 25
77 °FClear.17 mph79%29.96 "Hg10 mi
10:52 PM78 °FClear.18 mph76%29.92 "Hg10 mi
9:52 PM80 °FClear.17 mph71%29.92 "Hg10 mi
8:52 PM81 °FSunny.15 mph67%29.92 "Hg10 mi
7:52 PM82 °FSunny.16 mph65%29.92 "Hg10 mi
6:52 PM83 °FSunny.15 mph63%29.91 "Hg10 mi
5:52 PM85 °FSunny.20 mph57%29.91 "Hg10 mi
Weather by CustomWeather, © 2016

See weather overviewHow to use our weather pages